���t,����,�O�C���x,�����t���O,�O�C���Ύ��x,�����t���O,���ԋ�C���x,�����t���O,���ԑ��Ύ��x,�����t���O,�g�C���^���N����,�����t���O,���֋�C���x,�����t���O,��󒲎����x,�����t���O
2004/10/1,0:00,20.1,0,82.0,0,25.5,0,66.8,0,24.6,0,25.0,0,24.4,0
2004/10/1,0:15,19.8,0,83.0,0,25.5,0,67.1,0,24.2,0,25.1,0,24.2,0
2004/10/1,0:30,19.8,0,82.0,0,25.4,0,67.5,0,24.3,0,25.0,0,24.2,0
2004/10/1,0:45,19.5,0,84.0,0,25.4,0,67.7,0,24.3,0,24.9,0,24.0,0
2004/10/1,1:00,19.2,0,85.0,0,25.4,0,67.8,0,23.6,0,24.9,0,24.0,0
2004/10/1,1:15,19.1,0,85.0,0,25.4,0,68.5,0,23.6,0,24.8,0,23.9,0
2004/10/1,1:30,19.2,0,84.0,0,25.3,0,68.3,0,23.6,0,24.8,0,23.8,0
2004/10/1,1:45,19.0,0,84.0,0,25.2,0,68.0,0,23.7,0,24.8,0,23.7,0
2004/10/1,2:00,18.9,0,84.0,0,25.1,0,67.7,0,23.7,0,24.7,0,23.6,0
2004/10/1,2:15,18.9,0,85.0,0,25.1,0,67.5,0,23.8,0,24.7,0,23.5,0
2004/10/1,2:30,18.9,0,85.0,0,25.0,0,67.5,0,23.8,0,24.7,0,23.5,0
2004/10/1,2:45,18.9,0,84.0,0,24.9,0,67.6,0,23.9,0,24.6,0,23.4,0
2004/10/1,3:00,19.0,0,84.0,0,24.8,0,67.5,0,23.9,0,24.6,0,23.3,0
2004/10/1,3:15,19.2,0,84.0,0,24.8,0,67.6,0,24.0,0,24.6,0,23.3,0
2004/10/1,3:30,19.0,0,84.0,0,24.7,0,67.8,0,24.0,0,24.5,0,23.2,0
2004/10/1,3:45,18.5,0,86.0,0,24.7,0,68.0,0,24.0,0,24.5,0,23.2,0
2004/10/1,4:00,18.1,0,88.0,0,24.6,0,68.1,0,24.1,0,24.5,0,23.2,0
2004/10/1,4:15,18.1,0,89.0,0,24.6,0,68.1,0,24.1,0,24.4,0,23.1,0
2004/10/1,4:30,18.1,0,90.0,0,24.5,0,68.3,0,24.1,0,24.4,0,23.0,0
2004/10/1,4:45,18.0,0,89.0,0,24.5,0,68.3,0,24.2,0,24.4,0,23.0,0
2004/10/1,5:00,17.7,0,90.0,0,24.4,0,68.4,0,24.2,0,24.3,0,22.9,0
2004/10/1,5:15,17.6,0,91.0,0,24.4,0,68.6,0,24.3,0,24.3,0,22.8,0
2004/10/1,5:30,17.8,0,88.0,0,24.3,0,68.6,0,24.3,0,24.3,0,22.8,0
2004/10/1,5:45,17.8,0,87.0,0,24.3,0,68.7,0,24.3,0,24.2,0,22.7,0
2004/10/1,6:00,17.4,0,88.0,0,24.2,0,68.8,0,24.3,0,24.2,0,22.6,0
2004/10/1,6:15,17.4,0,88.0,0,24.2,0,68.8,0,24.4,0,24.2,0,22.6,0
2004/10/1,6:30,17.8,0,85.0,0,24.1,0,68.7,0,24.4,0,24.1,0,22.5,0
2004/10/1,6:45,19.7,0,79.0,0,24.1,0,68.7,0,24.4,0,24.1,0,22.5,0
2004/10/1,7:00,18.9,0,78.0,0,24.0,0,68.7,0,24.4,0,24.1,0,22.5,0
2004/10/1,7:15,19.2,0,78.0,0,24.0,0,68.8,0,24.5,0,24.0,0,22.5,0
2004/10/1,7:30,19.8,0,74.0,0,24.0,0,68.9,0,24.5,0,24.0,0,22.6,0
2004/10/1,7:45,20.7,0,70.0,0,24.0,0,68.8,0,24.0,0,24.0,0,22.7,0
2004/10/1,8:00,21.5,0,67.0,0,24.0,0,69.5,0,24.2,0,24.0,0,22.9,0
2004/10/1,8:15,22.1,0,64.0,0,24.1,0,69.2,0,24.2,0,24.0,0,23.0,0
2004/10/1,8:30,23.2,0,60.0,0,24.1,0,68.9,0,24.2,0,23.9,0,23.1,0
2004/10/1,8:45,23.4,0,59.0,0,24.2,0,68.4,0,24.3,0,23.9,0,23.2,0
2004/10/1,9:00,23.6,0,58.0,0,24.4,0,68.0,0,24.3,0,23.9,0,23.3,0
2004/10/1,9:15,24.2,0,58.0,0,24.5,0,67.7,0,24.3,0,23.9,0,23.4,0
2004/10/1,9:30,25.2,0,54.0,0,24.6,0,67.3,0,24.3,0,23.9,0,23.6,0
2004/10/1,9:45,25.8,0,52.0,0,24.8,0,67.0,0,24.4,0,24.0,0,23.7,0
2004/10/1,10:00,26.3,0,50.0,0,25.0,0,66.5,0,24.4,0,24.0,0,23.9,0
2004/10/1,10:15,27.2,0,49.0,0,25.2,0,66.2,0,24.4,0,24.0,0,24.0,0
2004/10/1,10:30,27.9,0,48.0,0,25.4,0,65.8,0,24.5,0,24.0,0,24.2,0
2004/10/1,10:45,27.9,0,46.0,0,25.5,0,65.5,0,24.5,0,24.1,0,24.4,0
2004/10/1,11:00,28.5,0,45.0,0,25.7,0,65.2,0,24.5,0,24.1,0,24.6,0
2004/10/1,11:15,28.8,0,47.0,0,25.9,0,65.0,0,24.6,0,24.2,0,24.7,0
2004/10/1,11:30,29.2,0,46.0,0,26.1,0,64.6,0,24.6,0,24.2,0,24.9,0
2004/10/1,11:45,28.8,0,48.0,0,26.3,0,64.3,0,24.6,0,24.3,0,25.1,0
2004/10/1,12:00,29.2,0,48.0,0,26.4,0,64.4,0,24.6,0,24.4,0,25.3,0
2004/10/1,12:15,29.2,0,49.0,0,26.5,0,64.3,0,24.7,0,24.4,0,25.5,0
2004/10/1,12:30,29.6,0,48.0,0,26.6,0,64.4,0,24.7,0,24.5,0,25.7,0
2004/10/1,12:45,29.6,0,48.0,0,26.7,0,64.3,0,24.7,0,24.5,0,25.8,0
2004/10/1,13:00,29.6,0,47.0,0,26.8,0,64.4,0,24.7,0,24.6,0,26.0,0
2004/10/1,13:15,29.7,0,47.0,0,26.9,0,64.4,0,24.8,0,24.7,0,26.1,0
2004/10/1,13:30,29.7,0,45.0,0,26.9,0,64.6,0,24.8,0,24.7,0,26.2,0
2004/10/1,13:45,28.8,0,53.0,0,26.9,0,64.9,0,24.8,0,24.7,0,26.3,0
2004/10/1,14:00,28.4,0,55.0,0,26.9,0,65.1,0,24.9,0,24.8,0,26.4,0
2004/10/1,14:15,28.3,0,56.0,0,26.9,0,65.3,0,24.9,0,24.8,0,26.5,0
2004/10/1,14:30,27.9,0,57.0,0,27.1,0,65.1,0,24.9,0,24.9,0,26.6,0
2004/10/1,14:45,27.2,0,60.0,0,27.1,0,65.2,0,25.0,0,24.9,0,26.7,0
2004/10/1,15:00,27.5,0,60.0,0,27.1,0,65.6,0,25.0,0,25.0,0,26.7,0
2004/10/1,15:15,27.4,0,59.0,0,27.1,0,65.8,0,25.0,0,25.0,0,26.8,0
2004/10/1,15:30,27.5,0,59.0,0,27.2,0,65.7,0,25.1,0,25.1,0,26.8,0
2004/10/1,15:45,27.2,0,59.0,0,27.2,0,65.8,0,25.1,0,25.1,0,26.9,0
2004/10/1,16:00,26.8,0,61.0,0,27.3,0,66.0,0,25.1,0,25.2,0,26.9,0
2004/10/1,16:15,26.4,0,62.0,0,27.2,0,66.1,0,25.2,0,25.2,0,26.9,0
2004/10/1,16:30,26.1,0,61.0,0,27.2,0,66.3,0,25.2,0,25.3,0,27.0,0
2004/10/1,16:45,25.7,0,63.0,0,27.2,0,66.5,0,25.3,0,25.3,0,27.0,0
2004/10/1,17:00,25.2,0,64.0,0,27.1,0,66.6,0,25.3,0,25.4,0,27.0,0
2004/10/1,17:15,24.9,0,66.0,0,27.1,0,66.6,0,25.3,0,25.4,0,27.0,0
2004/10/1,17:30,24.6,0,69.0,0,27.1,0,66.7,0,25.4,0,25.4,0,27.0,0
2004/10/1,17:45,24.4,0,70.0,0,27.0,0,66.8,0,25.4,0,25.4,0,27.0,0
2004/10/1,18:00,24.2,0,71.0,0,27.0,0,66.8,0,25.5,0,25.5,0,26.9,0
2004/10/1,18:15,23.8,0,72.0,0,26.9,0,67.0,0,25.5,0,25.5,0,26.8,0
2004/10/1,18:30,23.7,0,73.0,0,26.9,0,67.2,0,25.5,0,25.5,0,26.7,0
2004/10/1,18:45,23.5,0,74.0,0,26.8,0,67.4,0,25.6,0,25.5,0,26.5,0
2004/10/1,19:00,23.4,0,74.0,0,26.7,0,67.4,0,25.6,0,25.5,0,26.4,0
2004/10/1,19:15,23.3,0,74.0,0,26.7,0,67.6,0,25.6,0,25.5,0,26.3,0
2004/10/1,19:30,23.2,0,74.0,0,26.6,0,67.7,0,25.6,0,25.5,0,26.1,0
2004/10/1,19:45,23.2,0,73.0,0,26.6,0,67.8,0,25.7,0,25.5,0,26.0,0
2004/10/1,20:00,23.0,0,73.0,0,26.5,0,68.0,0,25.7,0,25.5,0,26.0,0
2004/10/1,20:15,23.0,0,73.0,0,26.4,0,68.0,0,25.8,0,25.5,0,25.8,0
2004/10/1,20:30,22.9,0,73.0,0,26.4,0,68.1,0,25.8,0,25.5,0,25.8,0
2004/10/1,20:45,22.7,0,74.0,0,26.4,0,68.1,0,25.8,0,25.4,0,25.7,0
2004/10/1,21:00,22.5,0,77.0,0,26.3,0,68.2,0,25.8,0,25.4,0,25.6,0
2004/10/1,21:15,22.4,0,76.0,0,26.3,0,68.3,0,23.9,0,25.4,0,25.5,0
2004/10/1,21:30,22.2,0,78.0,0,26.2,0,68.4,0,24.0,0,25.4,0,25.4,0
2004/10/1,21:45,21.9,0,77.0,0,26.2,0,68.6,0,24.0,0,25.4,0,25.3,0
2004/10/1,22:00,22.0,0,76.0,0,26.2,0,68.8,0,24.1,0,25.4,0,25.2,0
2004/10/1,22:15,21.9,0,75.0,0,26.2,0,68.8,0,24.1,0,25.4,0,25.1,0
2004/10/1,22:30,21.9,0,74.0,0,26.2,0,69.0,0,24.2,0,25.4,0,25.1,0
2004/10/1,22:45,21.8,0,75.0,0,26.1,0,68.8,0,24.2,0,25.4,0,25.0,0
2004/10/1,23:00,21.6,0,75.0,0,26.1,0,68.6,0,24.3,0,25.4,0,24.9,0
2004/10/1,23:15,21.3,0,76.0,0,26.0,0,68.6,0,24.3,0,25.3,0,24.9,0
2004/10/1,23:30,21.4,0,77.0,0,26.0,0,68.7,0,24.4,0,25.3,0,24.8,0
2004/10/1,23:45,21.4,0,78.0,0,25.9,0,68.5,0,24.4,0,25.3,0,24.8,0
2004/10/2,0:00,21.4,0,77.0,0,25.8,0,68.5,0,24.5,0,25.3,0,24.7,0
2004/10/2,0:15,21.2,0,78.0,0,25.8,0,68.5,0,24.5,0,25.3,0,24.6,0
2004/10/2,0:30,21.1,0,77.0,0,25.7,0,68.5,0,24.5,0,25.2,0,24.6,0
2004/10/2,0:45,21.0,0,77.0,0,25.7,0,68.5,0,24.6,0,25.2,0,24.5,0
2004/10/2,1:00,20.9,0,77.0,0,25.6,0,68.6,0,24.6,0,25.2,0,24.5,0
2004/10/2,1:15,20.8,0,77.0,0,25.6,0,68.5,0,24.7,0,25.2,0,24.4,0
2004/10/2,1:30,20.4,0,79.0,0,25.6,0,68.4,0,23.5,0,25.2,0,24.4,0
2004/10/2,1:45,20.2,0,79.0,0,25.5,0,68.3,0,23.6,0,25.3,0,24.3,0
2004/10/2,2:00,20.3,0,78.0,0,25.5,0,68.3,0,23.7,0,25.4,0,24.2,0
2004/10/2,2:15,20.4,0,77.0,0,25.4,0,68.3,0,23.7,0,25.4,0,24.1,0
2004/10/2,2:30,20.4,0,78.0,0,25.4,0,68.1,0,23.8,0,25.3,0,24.1,0
2004/10/2,2:45,20.2,0,80.0,0,25.4,0,68.2,0,23.8,0,25.2,0,24.0,0
2004/10/2,3:00,20.2,0,80.0,0,25.3,0,68.1,0,23.9,0,25.1,0,24.0,0
2004/10/2,3:15,20.5,0,79.0,0,25.3,0,68.1,0,23.9,0,25.1,0,24.0,0
2004/10/2,3:30,20.7,0,79.0,0,25.2,0,68.2,0,24.0,0,25.0,0,23.9,0
2004/10/2,3:45,20.6,0,81.0,0,25.2,0,68.3,0,24.0,0,25.0,0,23.9,0
2004/10/2,4:00,20.6,0,84.0,0,25.1,0,68.4,0,24.1,0,24.9,0,23.9,0
2004/10/2,4:15,20.6,0,86.0,0,25.1,0,68.4,0,24.1,0,24.9,0,23.9,0
2004/10/2,4:30,20.8,0,89.0,0,25.0,0,68.6,0,24.2,0,24.9,0,23.9,0
2004/10/2,4:45,20.9,0,91.0,0,25.0,0,68.7,0,24.2,0,24.9,0,23.8,0
2004/10/2,5:00,20.8,0,91.0,0,25.0,0,68.8,0,24.3,0,24.8,0,23.8,0
2004/10/2,5:15,20.8,0,89.0,0,24.9,0,69.1,0,24.3,0,24.8,0,23.8,0
2004/10/2,5:30,20.9,0,88.0,0,24.9,0,69.3,0,24.3,0,24.8,0,23.8,0
2004/10/2,5:45,21.0,0,88.0,0,24.9,0,69.6,0,24.4,0,24.8,0,23.8,0
2004/10/2,6:00,21.0,0,88.0,0,24.9,0,69.6,0,24.4,0,24.7,0,23.7,0
2004/10/2,6:15,21.0,0,88.0,0,24.8,0,69.7,0,24.5,0,24.7,0,23.7,0
2004/10/2,6:30,21.1,0,89.0,0,24.8,0,69.9,0,24.5,0,24.7,0,23.7,0
2004/10/2,6:45,21.1,0,89.0,0,24.8,0,70.0,0,24.5,0,24.7,0,23.7,0
2004/10/2,7:00,21.1,0,84.0,0,24.8,0,70.2,0,24.6,0,24.7,0,23.7,0
2004/10/2,7:15,21.1,0,77.0,0,24.8,0,70.4,0,24.6,0,24.7,0,23.7,0
2004/10/2,7:30,21.0,0,68.0,0,24.8,0,70.5,0,24.6,0,24.6,0,23.7,0
2004/10/2,7:45,20.9,0,65.0,0,24.7,0,70.5,0,24.7,0,24.6,0,23.7,0
2004/10/2,8:00,20.8,0,65.0,0,24.7,0,70.3,0,23.8,0,24.6,0,23.7,0
2004/10/2,8:15,20.9,0,67.0,0,24.8,0,70.8,0,23.9,0,24.6,0,23.7,0
2004/10/2,8:30,20.9,0,71.0,0,24.7,0,70.3,0,23.9,0,24.6,0,23.6,0
2004/10/2,8:45,20.8,0,72.0,0,24.7,0,69.9,0,24.0,0,24.5,0,23.6,0
2004/10/2,9:00,20.9,0,71.0,0,24.6,0,69.4,0,24.0,0,24.5,0,23.6,0
2004/10/2,9:15,20.9,0,71.0,0,24.6,0,69.3,0,24.0,0,24.5,0,23.6,0
2004/10/2,9:30,20.9,0,70.0,0,24.6,0,69.2,0,23.3,0,24.5,0,23.6,0
2004/10/2,9:45,20.9,0,72.0,0,24.6,0,69.1,0,23.3,0,24.4,0,23.5,0
2004/10/2,10:00,20.9,0,75.0,0,24.6,0,69.1,0,23.4,0,24.4,0,23.5,0
2004/10/2,10:15,20.6,0,78.0,0,24.5,0,69.2,0,23.4,0,24.4,0,23.5,0
2004/10/2,10:30,20.5,0,78.0,0,24.5,0,69.5,0,23.5,0,24.4,0,23.5,0
2004/10/2,10:45,20.3,0,78.0,0,24.5,0,69.7,0,23.5,0,24.4,0,23.5,0
2004/10/2,11:00,20.2,0,77.0,0,24.5,0,69.9,0,23.5,0,24.4,0,23.5,0
2004/10/2,11:15,20.2,0,76.0,0,24.5,0,69.8,0,23.6,0,24.3,0,23.4,0
2004/10/2,11:30,20.1,0,77.0,0,24.5,0,69.5,0,23.7,0,24.3,0,23.4,0
2004/10/2,11:45,20.0,0,77.0,0,24.5,0,69.0,0,23.7,0,24.3,0,23.4,0
2004/10/2,12:00,19.8,0,78.0,0,24.5,0,68.9,0,23.7,0,24.3,0,23.4,0
2004/10/2,12:15,19.8,0,78.0,0,24.4,0,68.7,0,23.8,0,24.3,0,23.3,0
2004/10/2,12:30,19.7,0,77.0,0,24.4,0,68.8,0,23.8,0,24.2,0,23.3,0
2004/10/2,12:45,19.7,0,76.0,0,24.4,0,68.6,0,23.9,0,24.2,0,23.2,0
2004/10/2,13:00,19.7,0,75.0,0,24.4,0,68.8,0,23.9,0,24.2,0,23.2,0
2004/10/2,13:15,19.7,0,74.0,0,24.5,0,68.2,0,24.0,0,24.2,0,23.2,0
2004/10/2,13:30,19.5,0,74.0,0,24.4,0,67.7,0,24.0,0,24.2,0,23.2,0
2004/10/2,13:45,19.5,0,75.0,0,24.4,0,68.1,0,23.1,0,24.1,0,23.1,0
2004/10/2,14:00,19.4,0,77.0,0,24.3,0,68.4,0,23.2,0,24.1,0,23.1,0
2004/10/2,14:15,19.5,0,81.0,0,24.3,0,68.6,0,23.2,0,24.1,0,23.0,0
2004/10/2,14:30,19.2,0,84.0,0,24.3,0,68.9,0,23.3,0,24.1,0,23.0,0
2004/10/2,14:45,19.0,0,85.0,0,24.2,0,68.8,0,23.3,0,24.0,0,23.0,0
2004/10/2,15:00,18.9,0,86.0,0,24.2,0,68.7,0,23.4,0,24.0,0,22.9,0
2004/10/2,15:15,18.8,0,87.0,0,24.2,0,68.5,0,23.4,0,24.0,0,22.9,0
2004/10/2,15:30,18.7,0,87.0,0,24.1,0,68.5,0,23.5,0,23.9,0,22.8,0
2004/10/2,15:45,18.5,0,88.0,0,24.1,0,68.5,0,23.5,0,23.9,0,22.8,0
2004/10/2,16:00,18.7,0,85.0,0,24.0,0,68.5,0,23.6,0,23.9,0,22.7,0
2004/10/2,16:15,18.7,0,86.0,0,24.0,0,68.5,0,23.6,0,23.8,0,22.7,0
2004/10/2,16:30,18.6,0,86.0,0,23.9,0,68.5,0,23.6,0,23.8,0,22.6,0
2004/10/2,16:45,18.6,0,87.0,0,23.9,0,68.5,0,23.7,0,23.8,0,22.6,0
2004/10/2,17:00,18.5,0,83.0,0,23.8,0,68.7,0,23.7,0,23.8,0,22.5,0
2004/10/2,17:15,18.4,0,85.0,0,23.8,0,69.0,0,23.8,0,23.7,0,22.5,0
2004/10/2,17:30,18.3,0,85.0,0,23.8,0,70.1,0,23.8,0,23.7,0,22.5,0
2004/10/2,17:45,18.5,0,87.0,0,23.8,0,70.4,0,23.9,0,23.7,0,22.4,0
2004/10/2,18:00,18.3,0,86.0,0,23.8,0,70.0,0,23.9,0,23.7,0,22.3,0
2004/10/2,18:15,18.3,0,85.0,0,23.8,0,69.8,0,23.9,0,23.7,0,22.3,0
2004/10/2,18:30,18.5,0,85.0,0,23.7,0,69.8,0,24.0,0,23.6,0,22.2,0
2004/10/2,18:45,18.6,0,84.0,0,23.7,0,69.7,0,24.0,0,23.6,0,22.2,0
2004/10/2,19:00,18.7,0,81.0,0,23.6,0,69.7,0,24.0,0,23.6,0,22.2,0
2004/10/2,19:15,18.9,0,76.0,0,23.6,0,69.6,0,24.1,0,23.5,0,22.1,0
2004/10/2,19:30,18.9,0,75.0,0,23.6,0,69.6,0,24.1,0,23.5,0,22.1,0
2004/10/2,19:45,19.0,0,74.0,0,23.6,0,69.6,0,24.1,0,23.5,0,22.1,0
2004/10/2,20:00,19.1,0,73.0,0,23.6,0,69.6,0,24.1,0,23.5,0,22.1,0
2004/10/2,20:15,19.1,0,71.0,0,23.6,0,70.3,0,24.2,0,23.4,0,22.1,0
2004/10/2,20:30,19.2,0,69.0,0,23.6,0,70.1,0,24.2,0,23.4,0,22.1,0
2004/10/2,20:45,19.3,0,70.0,0,23.6,0,70.7,0,24.2,0,23.4,0,22.1,0
2004/10/2,21:00,19.2,0,70.0,0,23.7,0,70.6,0,24.2,0,23.4,0,22.1,0
2004/10/2,21:15,19.4,0,70.0,0,23.7,0,69.4,0,24.3,0,23.4,0,22.1,0
2004/10/2,21:30,19.4,0,70.0,0,23.7,0,68.6,0,24.3,0,23.4,0,22.1,0
2004/10/2,21:45,19.3,0,66.0,0,23.7,0,68.4,0,24.3,0,23.3,0,22.1,0
2004/10/2,22:00,19.5,0,66.0,0,23.7,0,68.3,0,24.3,0,23.3,0,22.1,0
2004/10/2,22:15,19.4,0,66.0,0,23.7,0,68.1,0,24.3,0,23.3,0,22.1,0
2004/10/2,22:30,19.5,0,68.0,0,23.7,0,67.5,0,24.4,0,23.3,0,22.1,0
2004/10/2,22:45,19.4,0,67.0,0,23.7,0,67.2,0,24.4,0,23.3,0,22.1,0
2004/10/2,23:00,19.6,0,68.0,0,23.7,0,67.1,0,24.4,0,23.2,0,22.1,0
2004/10/2,23:15,19.5,0,68.0,0,23.6,0,67.0,0,24.4,0,23.2,0,22.0,0
2004/10/2,23:30,19.6,0,67.0,0,23.6,0,67.3,0,23.1,0,23.2,0,22.0,0
2004/10/2,23:45,19.7,0,66.0,0,23.6,0,67.1,0,23.1,0,23.2,0,22.0,0
2004/10/3,0:00,19.7,0,66.0,0,23.6,0,67.0,0,23.2,0,23.2,0,22.0,0
2004/10/3,0:15,19.6,0,65.0,0,23.5,0,67.0,0,23.2,0,23.2,0,22.0,0
2004/10/3,0:30,19.7,0,67.0,0,23.5,0,67.0,0,23.3,0,23.2,0,22.0,0
2004/10/3,0:45,19.6,0,67.0,0,23.4,0,66.8,0,23.3,0,23.2,0,22.0,0
2004/10/3,1:00,19.8,0,69.0,0,23.4,0,66.9,0,23.3,0,23.1,0,22.0,0
2004/10/3,1:15,19.8,0,71.0,0,23.4,0,66.9,0,23.4,0,23.1,0,22.0,0
2004/10/3,1:30,19.9,0,73.0,0,23.3,0,66.9,0,23.4,0,23.1,0,22.0,0
2004/10/3,1:45,19.9,0,73.0,0,23.3,0,66.8,0,23.5,0,23.1,0,21.9,0
2004/10/3,2:00,19.8,0,75.0,0,23.2,0,66.9,0,23.5,0,23.0,0,21.9,0
2004/10/3,2:15,19.7,0,76.0,0,23.2,0,67.1,0,23.5,0,23.0,0,21.9,0
2004/10/3,2:30,19.9,0,72.0,0,23.2,0,67.2,0,22.5,0,23.0,0,21.9,0
2004/10/3,2:45,20.0,0,76.0,0,23.2,0,67.5,0,22.6,0,23.0,0,21.9,0
2004/10/3,3:00,19.8,0,78.0,0,23.2,0,67.7,0,22.6,0,23.0,0,21.9,0
2004/10/3,3:15,19.5,0,79.0,0,23.1,0,67.8,0,22.7,0,22.9,0,21.9,0
2004/10/3,3:30,19.5,0,81.0,0,23.1,0,67.9,0,22.7,0,22.9,0,21.9,0
2004/10/3,3:45,19.5,0,83.0,0,23.1,0,68.1,0,22.8,0,22.9,0,21.8,0
2004/10/3,4:00,19.7,0,79.0,0,23.1,0,68.3,0,22.8,0,22.9,0,21.8,0
2004/10/3,4:15,19.8,0,79.0,0,23.0,0,68.5,0,22.8,0,22.9,0,21.8,0
2004/10/3,4:30,19.6,0,81.0,0,23.0,0,68.7,0,22.9,0,22.8,0,21.8,0
2004/10/3,4:45,19.4,0,83.0,0,23.0,0,68.8,0,22.9,0,22.8,0,21.8,0
2004/10/3,5:00,19.4,0,84.0,0,23.0,0,69.0,0,23.0,0,22.8,0,21.8,0
2004/10/3,5:15,19.4,0,86.0,0,22.9,0,69.2,0,23.0,0,22.8,0,21.8,0
2004/10/3,5:30,18.9,0,89.0,0,22.9,0,69.4,0,23.1,0,22.8,0,21.8,0
2004/10/3,5:45,18.8,0,90.0,0,22.9,0,69.6,0,23.1,0,22.7,0,21.7,0
2004/10/3,6:00,18.6,0,88.0,0,22.9,0,69.9,0,23.1,0,22.7,0,21.7,0
2004/10/3,6:15,18.9,0,88.0,0,22.9,0,70.1,0,23.2,0,22.7,0,21.6,0
2004/10/3,6:30,18.8,0,87.0,0,22.8,0,70.2,0,23.2,0,22.7,0,21.6,0
2004/10/3,6:45,18.8,0,87.0,0,22.8,0,70.4,0,23.3,0,22.7,0,21.5,0
2004/10/3,7:00,18.9,0,87.0,0,22.8,0,70.5,0,23.3,0,22.6,0,21.5,0
2004/10/3,7:15,18.9,0,89.0,0,22.8,0,70.6,0,23.3,0,22.6,0,21.5,0
2004/10/3,7:30,18.9,0,88.0,0,22.8,0,70.6,0,22.3,0,22.6,0,21.5,0
2004/10/3,7:45,18.5,0,91.0,0,22.8,0,70.9,0,22.3,0,22.6,0,21.5,0
2004/10/3,8:00,18.7,0,94.0,0,22.8,0,71.5,0,22.5,0,22.6,0,21.6,0
2004/10/3,8:15,18.8,0,93.0,0,22.8,0,72.2,0,22.5,0,22.6,0,21.6,0
2004/10/3,8:30,19.0,0,92.0,0,22.8,0,71.8,0,22.6,0,22.6,0,21.5,0
2004/10/3,8:45,19.1,0,93.0,0,22.8,0,71.8,0,22.4,0,22.6,0,21.5,0
2004/10/3,9:00,19.4,0,93.0,0,22.8,0,72.4,0,22.9,0,22.6,0,21.5,0
2004/10/3,9:15,19.7,0,91.0,0,22.8,0,72.5,0,22.9,0,22.6,0,21.6,0
2004/10/3,9:30,20.2,0,87.0,0,22.8,0,72.4,0,23.0,0,22.6,0,21.6,0
2004/10/3,9:45,20.4,0,84.0,0,22.9,0,72.4,0,23.0,0,22.6,0,21.8,0
2004/10/3,10:00,20.7,0,83.0,0,22.9,0,72.2,0,23.1,0,22.6,0,21.9,0
2004/10/3,10:15,21.0,0,83.0,0,22.9,0,72.1,0,23.1,0,22.6,0,22.0,0
2004/10/3,10:30,21.9,0,76.0,0,23.0,0,72.5,0,23.1,0,22.6,0,22.1,0
2004/10/3,10:45,22.8,0,71.0,0,23.4,0,71.6,0,23.2,0,22.6,0,22.2,0
2004/10/3,11:00,22.8,0,66.0,0,23.6,0,71.1,0,23.2,0,22.6,0,22.4,0
2004/10/3,11:15,22.8,0,66.0,0,23.6,0,71.0,0,23.3,0,22.7,0,22.5,0
2004/10/3,11:30,22.9,0,65.0,0,23.6,0,70.9,0,23.3,0,22.7,0,22.6,0
2004/10/3,11:45,23.6,0,62.0,0,23.6,0,70.8,0,23.3,0,22.7,0,22.7,0
2004/10/3,12:00,23.3,0,62.0,0,23.8,0,69.9,0,23.4,0,22.7,0,22.8,0
2004/10/3,12:15,23.2,0,62.0,0,23.9,0,69.8,0,23.4,0,22.8,0,22.9,0
2004/10/3,12:30,23.0,0,63.0,0,23.8,0,69.9,0,23.4,0,22.8,0,23.0,0
2004/10/3,12:45,23.0,0,63.0,0,23.8,0,70.0,0,23.5,0,22.8,0,23.0,0
2004/10/3,13:00,22.9,0,65.0,0,23.8,0,69.9,0,23.5,0,22.8,0,23.1,0
2004/10/3,13:15,23.0,0,62.0,0,23.8,0,69.9,0,23.6,0,22.8,0,23.2,0
2004/10/3,13:30,23.1,0,62.0,0,23.8,0,70.0,0,23.6,0,22.8,0,23.2,0
2004/10/3,13:45,23.6,0,59.0,0,23.9,0,70.0,0,23.6,0,22.9,0,23.3,0
2004/10/3,14:00,23.7,0,58.0,0,23.9,0,69.6,0,23.7,0,22.9,0,23.3,0
2004/10/3,14:15,24.0,0,55.0,0,24.0,0,69.6,0,23.7,0,22.9,0,23.4,0
2004/10/3,14:30,24.5,0,55.0,0,24.1,0,69.0,0,23.7,0,23.0,0,23.4,0
2004/10/3,14:45,24.1,0,58.0,0,24.2,0,68.6,0,22.7,0,23.0,0,23.5,0
2004/10/3,15:00,23.7,0,61.0,0,24.3,0,68.4,0,22.7,0,23.0,0,23.6,0
2004/10/3,15:15,23.8,0,60.0,0,24.3,0,68.6,0,23.2,0,23.1,0,23.6,0
2004/10/3,15:30,23.5,0,61.0,0,24.3,0,68.8,0,23.2,0,23.1,0,23.7,0
2004/10/3,15:45,23.3,0,62.0,0,24.3,0,68.6,0,23.3,0,23.1,0,23.7,0
2004/10/3,16:00,23.3,0,61.0,0,24.4,0,68.6,0,23.3,0,23.2,0,23.8,0
2004/10/3,16:15,23.4,0,60.0,0,24.4,0,68.8,0,23.4,0,23.2,0,23.9,0
2004/10/3,16:30,23.3,0,62.0,0,24.4,0,68.6,0,23.4,0,23.2,0,23.9,0
2004/10/3,16:45,23.2,0,63.0,0,24.5,0,68.5,0,23.5,0,23.2,0,24.0,0
2004/10/3,17:00,22.9,0,62.0,0,24.5,0,68.4,0,23.5,0,23.3,0,24.0,0
2004/10/3,17:15,22.7,0,62.0,0,24.5,0,68.5,0,23.5,0,23.3,0,24.0,0
2004/10/3,17:30,22.4,0,64.0,0,24.4,0,68.6,0,23.6,0,23.3,0,24.1,0
2004/10/3,17:45,22.2,0,66.0,0,24.5,0,68.5,0,23.6,0,23.3,0,24.1,0
2004/10/3,18:00,21.9,0,67.0,0,24.4,0,68.5,0,23.6,0,23.3,0,24.1,0
2004/10/3,18:15,21.7,0,67.0,0,24.4,0,68.5,0,23.7,0,23.4,0,24.1,0
2004/10/3,18:30,21.7,0,69.0,0,24.4,0,68.3,0,23.7,0,23.3,0,24.0,0
2004/10/3,18:45,21.5,0,70.0,0,24.3,0,68.4,0,23.8,0,23.4,0,23.9,0
2004/10/3,19:00,21.4,0,71.0,0,24.3,0,68.5,0,22.6,0,23.4,0,23.9,0
2004/10/3,19:15,21.3,0,72.0,0,24.3,0,68.7,0,22.7,0,23.4,0,23.7,0
2004/10/3,19:30,21.1,0,72.0,0,24.2,0,68.9,0,22.7,0,23.3,0,23.7,0
2004/10/3,19:45,21.1,0,72.0,0,24.2,0,68.8,0,22.8,0,23.3,0,23.6,0
2004/10/3,20:00,21.2,0,71.0,0,24.2,0,68.8,0,22.8,0,23.3,0,23.5,0
2004/10/3,20:15,21.0,0,71.0,0,24.1,0,68.9,0,22.9,0,23.3,0,23.5,0
2004/10/3,20:30,21.0,0,71.0,0,24.1,0,69.0,0,22.9,0,23.3,0,23.4,0
2004/10/3,20:45,20.9,0,71.0,0,24.1,0,69.0,0,23.0,0,23.3,0,23.3,0
2004/10/3,21:00,20.9,0,71.0,0,24.2,0,69.1,0,23.0,0,23.3,0,23.3,0
2004/10/3,21:15,20.9,0,71.0,0,24.2,0,69.2,0,22.8,0,23.3,0,23.2,0
2004/10/3,21:30,20.8,0,70.0,0,24.2,0,70.3,0,22.8,0,23.4,0,23.2,0
2004/10/3,21:45,20.7,0,69.0,0,24.2,0,70.3,0,22.9,0,23.4,0,23.2,0
2004/10/3,22:00,20.7,0,69.0,0,24.2,0,70.2,0,22.9,0,23.4,0,23.2,0
2004/10/3,22:15,20.5,0,68.0,0,24.2,0,69.9,0,22.9,0,23.4,0,23.1,0
2004/10/3,22:30,20.4,0,68.0,0,24.2,0,69.6,0,23.0,0,23.4,0,23.1,0
2004/10/3,22:45,20.3,0,68.0,0,24.2,0,69.4,0,23.0,0,23.4,0,23.0,0
2004/10/3,23:00,20.3,0,67.0,0,24.2,0,69.1,0,23.1,0,23.4,0,23.0,0
2004/10/3,23:15,20.2,0,66.0,0,24.2,0,69.4,0,23.1,0,23.4,0,23.0,0
2004/10/3,23:30,20.2,0,67.0,0,24.2,0,68.9,0,22.8,0,23.4,0,22.9,0
2004/10/3,23:45,20.2,0,66.0,0,24.1,0,69.0,0,22.9,0,23.4,0,22.9,0
2004/10/4,0:00,20.2,0,67.0,0,24.1,0,69.0,0,22.9,0,23.4,0,22.8,0
2004/10/4,0:15,20.1,0,68.0,0,24.1,0,68.6,0,23.0,0,23.4,0,22.8,0
2004/10/4,0:30,20.1,0,68.0,0,24.0,0,68.3,0,23.0,0,23.4,0,22.8,0
2004/10/4,0:45,20.0,0,68.0,0,24.0,0,68.1,0,23.1,0,23.4,0,22.7,0
2004/10/4,1:00,19.9,0,68.0,0,23.9,0,68.0,0,23.1,0,23.4,0,22.7,0
2004/10/4,1:15,19.8,0,68.0,0,23.9,0,67.9,0,23.2,0,23.3,0,22.6,0
2004/10/4,1:30,19.9,0,68.0,0,23.8,0,67.8,0,23.2,0,23.3,0,22.6,0
2004/10/4,1:45,19.8,0,65.0,0,23.8,0,67.8,0,23.3,0,23.3,0,22.6,0
2004/10/4,2:00,19.6,0,63.0,0,23.7,0,67.8,0,23.3,0,23.3,0,22.5,0
2004/10/4,2:15,19.7,0,64.0,0,23.7,0,67.8,0,23.4,0,23.3,0,22.5,0
2004/10/4,2:30,19.5,0,64.0,0,23.7,0,67.7,0,23.4,0,23.3,0,22.4,0
2004/10/4,2:45,19.3,0,65.0,0,23.6,0,67.6,0,23.4,0,23.3,0,22.4,0
2004/10/4,3:00,19.3,0,66.0,0,23.6,0,67.6,0,23.5,0,23.2,0,22.3,0
2004/10/4,3:15,19.2,0,64.0,0,23.5,0,67.5,0,23.5,0,23.2,0,22.2,0
2004/10/4,3:30,19.0,0,66.0,0,23.4,0,67.4,0,23.5,0,23.2,0,22.2,0
2004/10/4,3:45,18.8,0,67.0,0,23.4,0,67.3,0,23.6,0,23.2,0,22.1,0
2004/10/4,4:00,18.6,0,68.0,0,23.3,0,67.3,0,23.6,0,23.2,0,22.0,0
2004/10/4,4:15,18.3,0,69.0,0,23.3,0,67.2,0,23.7,0,23.1,0,22.0,0
2004/10/4,4:30,18.2,0,69.0,0,23.2,0,67.1,0,23.7,0,23.1,0,21.9,0
2004/10/4,4:45,18.2,0,69.0,0,23.2,0,67.1,0,23.7,0,23.1,0,21.8,0
2004/10/4,5:00,18.3,0,67.0,0,23.1,0,67.0,0,23.8,0,23.1,0,21.7,0
2004/10/4,5:15,18.3,0,68.0,0,23.1,0,66.9,0,23.8,0,23.0,0,21.7,0
2004/10/4,5:30,18.2,0,70.0,0,23.0,0,67.4,0,23.8,0,23.0,0,21.6,0
2004/10/4,5:45,18.2,0,71.0,0,23.0,0,67.4,0,23.8,0,23.0,0,21.6,0
2004/10/4,6:00,18.2,0,72.0,0,22.9,0,67.3,0,23.9,0,22.9,0,21.5,0
2004/10/4,6:15,18.2,0,73.0,0,22.9,0,67.2,0,23.9,0,22.9,0,21.5,0
2004/10/4,6:30,18.2,0,74.0,0,22.9,0,67.3,0,23.9,0,22.9,0,21.4,0
2004/10/4,6:45,18.4,0,74.0,0,22.9,0,68.2,0,23.9,0,22.9,0,21.4,0
2004/10/4,7:00,18.7,0,73.0,0,22.9,0,68.5,0,24.0,0,22.8,0,21.4,0
2004/10/4,7:15,19.4,0,70.0,0,22.9,0,68.7,0,24.0,0,22.8,0,21.4,0
2004/10/4,7:30,20.2,0,71.0,0,22.9,0,69.1,0,24.0,0,22.8,0,21.6,0
2004/10/4,7:45,20.6,0,71.0,0,23.0,0,69.6,0,23.5,0,22.8,0,21.8,0
2004/10/4,8:00,20.9,0,68.0,0,23.1,0,69.1,0,23.5,0,22.8,0,21.9,0
2004/10/4,8:15,21.8,0,64.0,0,23.1,0,68.7,0,23.5,0,22.8,0,22.0,0
2004/10/4,8:30,22.6,0,61.0,0,23.2,0,68.4,0,23.6,0,22.8,0,22.1,0
2004/10/4,8:45,22.9,0,60.0,0,23.3,0,68.1,0,23.6,0,22.8,0,22.2,0
2004/10/4,9:00,23.0,0,60.0,0,23.5,0,67.7,0,23.6,0,22.8,0,22.3,0
2004/10/4,9:15,23.0,0,59.0,0,23.6,0,67.3,0,23.7,0,22.8,0,22.5,0
2004/10/4,9:30,23.2,0,58.0,0,23.8,0,66.9,0,23.7,0,22.8,0,22.6,0
2004/10/4,9:45,23.8,0,57.0,0,24.0,0,66.7,0,23.7,0,22.8,0,22.8,0
2004/10/4,10:00,23.9,0,53.0,0,24.1,0,66.1,0,23.7,0,22.9,0,22.9,0
2004/10/4,10:15,24.0,0,53.0,0,24.3,0,65.8,0,23.8,0,22.9,0,23.1,0
2004/10/4,10:30,24.5,0,52.0,0,24.3,0,65.8,0,23.8,0,22.9,0,23.2,0
2004/10/4,10:45,24.9,0,51.0,0,24.5,0,65.3,0,23.8,0,23.0,0,23.4,0
2004/10/4,11:00,24.9,0,50.0,0,24.6,0,64.8,0,23.9,0,23.0,0,23.6,0
2004/10/4,11:15,25.1,0,48.0,0,24.8,0,64.5,0,23.9,0,23.0,0,23.8,0
2004/10/4,11:30,24.8,0,49.0,0,24.9,0,64.2,0,23.9,0,23.1,0,24.0,0
2004/10/4,11:45,25.5,0,47.0,0,24.8,0,64.6,0,23.9,0,23.1,0,24.0,0
2004/10/4,12:00,25.6,0,45.0,0,25.0,0,64.3,0,24.0,0,23.2,0,24.2,0
2004/10/4,12:15,25.4,0,47.0,0,25.1,0,64.2,0,24.0,0,23.2,0,24.3,0
2004/10/4,12:30,25.5,0,45.0,0,25.1,0,64.2,0,24.0,0,23.2,0,24.4,0
2004/10/4,12:45,25.8,0,45.0,0,25.1,0,64.2,0,24.0,0,23.3,0,24.5,0
2004/10/4,13:00,25.5,0,51.0,0,25.2,0,64.0,0,24.1,0,23.3,0,24.6,0
2004/10/4,13:15,25.2,0,52.0,0,25.3,0,63.9,0,24.1,0,23.3,0,24.7,0
2004/10/4,13:30,25.4,0,52.0,0,25.3,0,63.8,0,24.1,0,23.4,0,24.7,0
2004/10/4,13:45,25.7,0,50.0,0,25.3,0,63.9,0,24.1,0,23.4,0,24.8,0
2004/10/4,14:00,25.5,0,50.0,0,25.5,0,63.6,0,24.2,0,23.5,0,24.8,0
2004/10/4,14:15,25.5,0,49.0,0,25.6,0,63.4,0,24.2,0,23.5,0,24.9,0
2004/10/4,14:30,25.4,0,51.0,0,25.6,0,63.4,0,24.2,0,23.5,0,25.0,0
2004/10/4,14:45,24.8,0,51.0,0,25.7,0,63.3,0,24.3,0,23.6,0,25.0,0
2004/10/4,15:00,24.7,0,53.0,0,25.6,0,63.6,0,24.3,0,23.6,0,25.1,0
2004/10/4,15:15,24.3,0,53.0,0,25.7,0,63.6,0,24.3,0,23.7,0,25.1,0
2004/10/4,15:30,24.1,0,57.0,0,25.6,0,63.8,0,24.3,0,23.7,0,25.2,0
2004/10/4,15:45,23.7,0,57.0,0,25.6,0,63.8,0,24.4,0,23.7,0,25.2,0
2004/10/4,16:00,23.5,0,58.0,0,25.5,0,63.9,0,24.4,0,23.8,0,25.2,0
2004/10/4,16:15,23.2,0,57.0,0,25.5,0,63.8,0,24.4,0,23.8,0,25.2,0
2004/10/4,16:30,22.9,0,58.0,0,25.4,0,63.9,0,24.4,0,23.8,0,25.2,0
2004/10/4,16:45,22.9,0,58.0,0,25.4,0,63.9,0,24.5,0,23.8,0,25.2,0
2004/10/4,17:00,22.9,0,61.0,0,25.3,0,64.0,0,24.5,0,23.8,0,25.2,0
2004/10/4,17:15,22.7,0,62.0,0,25.3,0,64.0,0,24.5,0,23.8,0,25.1,0
2004/10/4,17:30,22.6,0,64.0,0,25.2,0,64.0,0,24.5,0,23.8,0,25.1,0
2004/10/4,17:45,22.4,0,64.0,0,25.2,0,64.2,0,24.6,0,23.8,0,25.0,0
2004/10/4,18:00,22.2,0,65.0,0,25.1,0,64.4,0,24.6,0,23.9,0,24.9,0
2004/10/4,18:15,22.1,0,65.0,0,25.1,0,64.7,0,24.6,0,23.9,0,24.8,0
2004/10/4,18:30,22.0,0,66.0,0,25.0,0,64.7,0,24.6,0,23.9,0,24.7,0